Location: Unspecified
(51.0950°N, 12.9690°E)
Time: 22:52:03
(UTC+00:00)

PSLV R/B - Pass Details

Date: 28 October 2021
Orbit: 501 x 576 km, 97.8° (Epoch: 01 December)

Event Time Altitude Azimuth Distance (km) Brightness Sun altitude
Rises 16:30:03 0° 162° (SSE) 2,732 7.3 -7.0°
Reaches altitude 10° 16:32:12 10° 161° (SSE) 1,830 6.4 -7.3°
Maximum altitude 16:36:10 81° 74° (ENE) 557 3.7 -7.9°
Drops below altitude 10° 16:40:03 10° 348° (NNW) 1,800 6.5 -8.5°
Sets 16:42:09 0° 347° (NNW) 2,683 7.4 -8.8°
